Weather History for Bangor, ME

Change the Weather History Date:

Saturday, January 18, 2014

  Actual Average Record
Temperature  
Mean Temperature 29 °F 16 °F  
Max Temperature 34 °F 27 °F 55 °F (1990)
Min Temperature 24 °F 6 °F -24 °F (1957)
Degree Days  
Heating Degree Days 36 49  
Month to date heating degree days 753 859  
Since 1 July heating degree days 3765 3780  
Cooling Degree Days 0 0  
Month to date cooling degree days 0 0  
Year to date cooling degree days 0 0  
Moisture  
Dew Point 27 °F    
Average Humidity 84    
Maximum Humidity 92    
Minimum Humidity 75    
Precipitation  
Precipitation 0.00 in 0.10 in 1.06 in (1926)
Month to date precipitation 2.76 1.69  
Year to date precipitation 2.76 1.69  
Snow  
Snow 0.00 in 0.60 in 11.50 in (2009)
Month to date snowfall 2.8 11.3  
Since 1 July snowfall 32.1 28.1  
Snow Depth 0.00 in    
Sea Level Pressure  
Sea Level Pressure 29.80 in    
Wind  
Wind Speed 1 mph (North)    
Max Wind Speed 8 mph    
Max Gust Speed 9 mph    
Visibility 9 miles    
Events      
T = Trace of Precipitation, MM = Missing Value Source: NWS Daily Summary

Daily Weather History Graph

Daily Weather History Graph

Search for Another Location

Airport:

Trip Planner

Search our weather history database for the weather conditions in past years. The results will help you decide how hot, cold, wet, or windy it might be!

Date:

Astronomy

Jan. 18, 2014 Rise Set
Actual Time 7:07 AM EST 4:24 PM EST
Civil Twilight 6:35 AM EST 4:56 PM EST
Nautical Twilight 5:59 AM EST 5:32 PM EST
Astronomical Twilight 5:24 AM EST 6:07 PM EST
Moon 7:11 PM EST (1/18) 7:57 AM EST (1/18)
Length of Visible Light 10h 21m
Length of Day
9h 16m
Waning Gibbous, 94% of the Moon is Illuminated
Jan 18
Waning Gibbous
Jan 24
Last Quarter
Jan 30
New
Feb 6
First Quarter
Feb 14
Full

Hourly Weather History & Observations

Time (EST) Temp. Windchill Dew Point Humidity Pressure Visibility Wind Dir Wind Speed Gust Speed Precip Events Conditions
12:53 AM 28.0 °F - 26.1 °F 92% 29.91 in 10.0 mi Calm Calm - N/A   Overcast
1:53 AM 28.0 °F - 26.1 °F 92% 29.91 in 10.0 mi Calm Calm - N/A   Overcast
2:53 AM 28.0 °F - 26.1 °F 92% 29.90 in 10.0 mi Calm Calm - N/A   Overcast
3:53 AM 27.0 °F - 25.0 °F 92% 29.90 in 10.0 mi Calm Calm - N/A   Overcast
4:53 AM 25.0 °F - 23.0 °F 92% 29.91 in 8.0 mi Calm Calm - N/A   Mostly Cloudy
5:53 AM 26.1 °F - 24.1 °F 92% 29.92 in 8.0 mi Calm Calm - N/A   Mostly Cloudy
6:53 AM 26.1 °F - 23.0 °F 88% 29.91 in 8.0 mi Calm Calm - N/A   Overcast
7:53 AM 28.0 °F - 25.0 °F 88% 29.90 in 5.0 mi Calm Calm - N/A   Overcast
8:53 AM 28.9 °F - 26.1 °F 89% 29.89 in 5.0 mi Calm Calm - N/A   Overcast
9:53 AM 30.9 °F - 28.0 °F 89% 29.87 in 6.0 mi Calm Calm - N/A   Overcast
10:53 AM 32.0 °F 28.7 °F 27.0 °F 82% 29.86 in 8.0 mi NW 3.5 mph - N/A   Overcast
11:53 AM 32.0 °F 28.7 °F 28.0 °F 85% 29.81 in 8.0 mi NNW 3.5 mph - N/A   Overcast
12:53 PM 32.0 °F 27.5 °F 28.0 °F 85% 29.77 in 7.0 mi NNE 4.6 mph - N/A   Overcast
1:53 PM 33.1 °F 27.7 °F 28.0 °F 82% 29.75 in 9.0 mi NNE 5.8 mph - N/A   Overcast
2:53 PM 34.0 °F - 27.0 °F 75% 29.73 in 9.0 mi Calm Calm - N/A   Mostly Cloudy
3:53 PM 33.1 °F 28.7 °F 28.0 °F 82% 29.73 in 10.0 mi NNE 4.6 mph - N/A   Overcast
4:53 PM 32.0 °F 27.5 °F 28.0 °F 85% 29.73 in 10.0 mi NNE 4.6 mph - N/A   Overcast
5:53 PM 30.9 °F 26.2 °F 28.0 °F 89% 29.71 in 8.0 mi North 4.6 mph - N/A   Overcast
6:53 PM 30.9 °F 24.3 °F 28.0 °F 89% 29.70 in 8.0 mi North 6.9 mph - N/A   Overcast
7:53 PM 30.0 °F 25.2 °F 28.0 °F 92% 29.68 in 9.0 mi North 4.6 mph - N/A   Overcast
8:53 PM 30.0 °F 25.2 °F 28.0 °F 92% 29.67 in 10.0 mi North 4.6 mph - N/A   Overcast
9:53 PM 30.0 °F 26.5 °F 28.0 °F 92% 29.67 in 10.0 mi North 3.5 mph - N/A   Overcast
10:53 PM 30.0 °F - 27.0 °F 88% 29.67 in 10.0 mi Calm Calm - N/A   Overcast
11:53 PM 28.9 °F - 27.0 °F 92% 29.66 in 10.0 mi Calm Calm - N/A   Overcast